Fairfield, IL

5:47 AM CST on December 14, 2019 (GMT -0600)
Fairfield Municipal

Weather History for KFWC - October, 2019

Change the Weather History Date:

Tuesday, October 15, 2019

  Actual Average (KEVV) Record (KEVV)
Temperature  
Mean Temperature 56 °F -  
Max Temperature 70 °F 71 °F 90 °F (1963)
Min Temperature 41 °F 46 °F 29 °F (1961)
Degree Days  
Heating Degree Days 10    
Growing Degree Days 6 (Base 50)    
Moisture  
Dew Point 52 °F    
Average Humidity 85    
Maximum Humidity 100    
Minimum Humidity 53    
Precipitation  
Precipitation 0.00 in - - ()
Sea Level Pressure  
Sea Level Pressure 29.92 in    
Wind  
Wind Speed 1 mph ()    
Max Wind Speed 8 mph    
Max Gust Speed -    
Visibility 9.2 miles    
Events Thunderstorm    
Averages and records for this station are not official NWS values.
T = Trace of Precipitation, MM = Missing Value Source: Averaged Metar Reports

Daily Weather History Graph

Daily Weather History Graph

Search for Another Location

Airport or City:

Astronomy

Oct. 15, 2019 Rise Set
Actual Time 7:02 AM CDT 6:15 PM CDT
Civil Twilight 6:35 AM CDT 6:42 PM CDT
Nautical Twilight 6:04 AM CDT 7:13 PM CDT
Astronomical Twilight 5:34 AM CDT 7:43 PM CDT
Moon 7:36 PM CDT (10/15) 8:32 AM CDT (10/15)
Length of Visible Light 12h 06m
Length of Day
11h 13m
Full, 97% of the Moon is Illuminated
Oct 15
Full
Oct 21
Last Quarter
Oct 27
New
Nov 4
First Quarter
Nov 12
Full

Hourly Weather History & Observations

Time (CDT) Temp. Dew Point Humidity Pressure Visibility Wind Dir Wind Speed Gust Speed Precip Events Conditions
12:15 AM 45.7 °F 43.7 °F 93% 30.05 in 10.0 mi Calm Calm - N/A   Clear
12:35 AM 43.9 °F 43.0 °F 97% 30.04 in 10.0 mi Calm Calm - N/A   Clear
12:55 AM 43.7 °F 43.5 °F 99% 30.04 in 10.0 mi Calm Calm - N/A   Clear
1:15 AM 42.8 °F 42.8 °F 100% 30.04 in 7.0 mi Calm Calm - N/A   Clear
1:35 AM 43.0 °F 43.0 °F 100% 30.04 in 10.0 mi Calm Calm - N/A   Clear
1:55 AM 43.7 °F 42.3 °F 95% 30.04 in 10.0 mi Calm Calm - N/A   Clear
2:15 AM 42.1 °F 42.1 °F 100% 30.04 in 10.0 mi Calm Calm - N/A   Clear
2:35 AM 41.9 °F 41.9 °F 100% 30.03 in 10.0 mi Calm Calm - N/A   Clear
2:55 AM 42.3 °F 42.1 °F 99% 30.02 in 10.0 mi Calm Calm - N/A   Clear
3:35 AM 43.0 °F 43.0 °F 100% 30.01 in 10.0 mi Calm Calm - N/A   Clear
3:55 AM 42.1 °F 42.1 °F 100% 30.01 in 10.0 mi Calm Calm - N/A   Clear
4:15 AM 42.1 °F 42.1 °F 100% 30.01 in 10.0 mi Calm Calm - N/A   Clear
4:35 AM 42.8 °F 42.8 °F 100% 30.01 in 10.0 mi Calm Calm - N/A   Clear
4:55 AM 42.3 °F 42.3 °F 100% 30.01 in 10.0 mi Calm Calm - N/A   Clear
5:15 AM 42.1 °F 42.1 °F 100% 30.01 in 10.0 mi Calm Calm - N/A   Clear
5:35 AM 42.4 °F 42.4 °F 100% 30.01 in 10.0 mi Calm Calm - N/A   Clear
5:55 AM 42.6 °F 42.6 °F 100% 30.01 in 10.0 mi Calm Calm - N/A   Clear
6:15 AM 42.6 °F 42.6 °F 100% 30.00 in 10.0 mi Calm Calm - N/A   Clear
6:35 AM 43.0 °F 43.0 °F 100% 30.00 in 10.0 mi Calm Calm - N/A   Clear
6:55 AM 44.4 °F 44.2 °F 99% 29.99 in 10.0 mi Calm Calm - N/A   Clear
7:15 AM 46.8 °F 45.0 °F 93% 29.98 in 7.0 mi Calm Calm - N/A   Clear
7:35 AM 48.6 °F 46.8 °F 93% 29.99 in 10.0 mi Calm Calm - N/A   Clear
7:55 AM 50.5 °F 48.2 °F 92% 29.99 in 7.0 mi Calm Calm - N/A   Clear
8:15 AM 52.9 °F 48.9 °F 86% 29.98 in 10.0 mi Calm Calm - N/A   Clear
8:35 AM 54.1 °F 49.6 °F 85% 29.97 in 10.0 mi Calm Calm - N/A   Clear
8:55 AM 56.5 °F 50.2 °F 79% 29.97 in 10.0 mi South 4.6 mph - N/A   Scattered Clouds
9:15 AM 56.8 °F 50.2 °F 78% 29.97 in 10.0 mi South 3.5 mph - N/A   Mostly Cloudy
9:35 AM 58.3 °F 51.1 °F 77% 29.97 in 10.0 mi South 4.6 mph - N/A   Overcast
9:55 AM 59.9 °F 51.6 °F 74% 29.96 in 5.0 mi South 5.8 mph - N/A   Haze
10:15 AM 60.8 °F 52.3 °F 74% 29.95 in 4.0 mi South 3.5 mph - N/A   Haze
10:35 AM 62.1 °F 53.1 °F 72% 29.94 in 4.0 mi South 3.5 mph - N/A   Haze
10:55 AM 64.2 °F 53.6 °F 68% 29.93 in 4.0 mi South 4.6 mph - N/A   Haze
11:15 AM 64.9 °F 54.3 °F 68% 29.93 in 4.0 mi South 5.8 mph - N/A   Haze
11:35 AM 65.3 °F 54.7 °F 68% 29.92 in 10.0 mi South 4.6 mph - N/A   Overcast
11:55 AM 66.2 °F 55.0 °F 67% 29.92 in 10.0 mi WSW 3.5 mph - N/A   Overcast
12:15 PM 66.2 °F 55.6 °F 69% 29.92 in 10.0 mi West 3.5 mph - N/A   Overcast
12:35 PM 65.8 °F 55.8 °F 70% 29.92 in 10.0 mi SW 6.9 mph - N/A   Overcast
12:55 PM 64.0 °F 56.8 °F 77% 29.91 in 7.0 mi SW 4.6 mph - N/A   Overcast
1:15 PM 64.9 °F 56.8 °F 75% 29.89 in 10.0 mi SW 3.5 mph - N/A   Overcast
1:35 PM 65.3 °F 57.2 °F 75% 29.88 in 10.0 mi Calm Calm - N/A   Overcast
1:55 PM 65.8 °F 56.7 °F 72% 29.87 in 10.0 mi Calm Calm - N/A   Overcast
2:15 PM 66.9 °F 57.0 °F 70% 29.86 in 10.0 mi Calm Calm - N/A   Overcast
2:35 PM 68.9 °F 57.7 °F 68% 29.84 in 10.0 mi SSW 3.5 mph - N/A   Overcast
2:55 PM 69.1 °F 58.6 °F 69% 29.84 in 10.0 mi SSW 5.8 mph - N/A   Overcast
3:15 PM 70.0 °F 59.0 °F 68% 29.83 in 10.0 mi SSW 4.6 mph - N/A   Overcast
3:35 PM 69.8 °F 59.0 °F 68% 29.84 in 10.0 mi SSW 4.6 mph - N/A   Overcast
3:55 PM 69.1 °F 59.7 °F 72% 29.84 in 10.0 mi SSW 3.5 mph - N/A   Overcast
4:15 PM 69.1 °F 60.1 °F 73% 29.84 in 10.0 mi SSW 6.9 mph - N/A   Overcast
4:35 PM 68.4 °F 60.1 °F 75% 29.84 in 10.0 mi SSW 6.9 mph - N/A   Overcast
4:55 PM 68.0 °F 60.3 °F 76% 29.84 in 10.0 mi SSW 3.5 mph - N/A   Overcast
5:15 PM 67.5 °F 60.3 °F 78% 29.84 in 10.0 mi SSW 5.8 mph - N/A   Overcast
5:35 PM 67.3 °F 60.4 °F 79% 29.84 in 10.0 mi SW 4.6 mph - N/A   Overcast
6:15 PM 66.6 °F 60.3 °F 80% 29.84 in 10.0 mi SW 3.5 mph - N/A   Overcast
6:35 PM 65.8 °F 60.3 °F 82% 29.84 in 10.0 mi Calm Calm - N/A   Overcast
6:55 PM 64.6 °F 60.1 °F 85% 29.83 in 10.0 mi Calm Calm - N/A   Overcast
7:15 PM 61.9 °F 60.3 °F 94% 29.83 in 10.0 mi Calm Calm - N/A Thunderstorm Thunderstorm
7:35 PM 61.0 °F 60.8 °F 99% 29.82 in 10.0 mi Calm Calm - N/A   Scattered Clouds
7:55 PM 60.3 °F 60.3 °F 100% 29.82 in 10.0 mi Calm Calm - N/A   Scattered Clouds
8:15 PM 59.5 °F 59.5 °F 100% 29.81 in 10.0 mi Calm Calm - N/A   Scattered Clouds
8:35 PM 57.2 °F 57.2 °F 100% 29.81 in 5.0 mi Calm Calm - N/A   Scattered Clouds
8:55 PM 57.7 °F 57.7 °F 100% 29.81 in 7.0 mi Calm Calm - N/A   Clear
9:15 PM 60.6 °F 60.6 °F 100% 29.82 in 10.0 mi Calm Calm - N/A   Scattered Clouds
9:35 PM 60.8 °F 60.8 °F 100% 29.84 in 7.0 mi Calm Calm - N/A   Mostly Cloudy
9:55 PM 60.6 °F 60.6 °F 100% 29.84 in 7.0 mi Calm Calm - N/A   Overcast
10:15 PM 60.8 °F 60.8 °F 100% 29.82 in 7.0 mi Calm Calm - N/A   Scattered Clouds
10:35 PM 61.7 °F 61.5 °F 99% 29.85 in 10.0 mi Calm Calm - N/A   Mostly Cloudy
11:15 PM 60.8 °F 43.7 °F 53% 29.87 in 10.0 mi NW 4.6 mph - N/A   Mostly Cloudy
11:35 PM 59.9 °F 43.2 °F 54% 29.87 in 10.0 mi NNW 5.8 mph - N/A   Mostly Cloudy
11:55 PM 59.4 °F 43.0 °F 55% 29.88 in 10.0 mi NNW 8.1 mph - N/A   Overcast